This demonstration page uses our WeatherBlox Daily Observations layout. Learn more.

Left ArrowRight Arrow

39.08367, -84.50855

Hourly Observations for June 15, 2021

Temp ( °F °C ) Dew Point ( °F °C ) Humidity (%) Winds ( mph kmh ) Pressure ( in mb ) Visibility ( mi km ) Precip ( " mm )
12:53 am 00:53 Clear 70 21.1 52 11.1 53 53 NNW 12 19 29.93 1014 10 16 N/A
1:53 am 01:53 Clear 68 20 53 11.7 59 59 N 9 15 29.96 1015 10 16 N/A
2:53 am 02:53 Clear 66 18.9 54 12.2 65 65 N 7 11 29.97 1015 10 16 N/A
3:53 am 03:53 Clear 63 17.2 54 12.2 73 73 N N/A 29.96 1015 10 16 N/A
4:53 am 04:53 Clear 61 16.1 55 12.8 81 81 N N/A 29.98 1015 8 13 N/A
5:53 am 05:53 Clear 59 15 55 12.8 87 87 N N/A 29.98 1015 8 13 N/A
6:53 am 06:53 Sunny 58 14.4 55 12.8 90 90 N N/A 30.00 1016 10 16 N/A
7:53 am 07:53 Sunny 65 18.3 56 13.3 73 73 N N/A 30.00 1016 10 16 0.00 0.00
8:53 am 08:53 Sunny 69 20.6 55 12.8 61 61 N 9 15 30.02 1017 10 16 N/A
9:53 am 09:53 Sunny 72 22.2 56 13.3 57 57 NNE 8 13 30.02 1017 10 16 N/A
10:53 am 10:53 Sunny 75 23.9 55 12.8 50 50 NNE 7 11 30.02 1017 10 16 N/A
11:53 am 11:53 Mostly Sunny 77 25 56 13.3 48 48 VRB 3 6 30.02 1017 10 16 N/A
12:53 pm 12:53 Partly Cloudy 79 26.1 55 12.8 44 44 NNE 8 13 30.01 1016 10 16 N/A
1:53 pm 13:53 Mostly Sunny 80 26.7 53 11.7 39 39 N 14 22 30.01 1016 10 16 N/A
2:53 pm 14:53 Sunny 80 26.7 53 11.7 39 39 undefined N/A 30.00 1016 10 16 N/A
3:53 pm 15:53 Partly Cloudy 81 27.2 51 10.6 35 35 N 12 19 29.98 1015 10 16 N/A
4:53 pm 16:53 Mostly Cloudy 82 27.8 51 10.6 34 34 NNW 13 20 29.98 1015 10 16 N/A
6:53 pm 18:53 Partly Cloudy 81 27.2 51 10.6 35 35 N 10 17 29.97 1015 10 16 N/A
7:53 pm 19:53 Mostly Sunny 78 25.6 50 10 37 37 N 9 15 29.97 1015 10 16 N/A
8:53 pm 20:53 Sunny 75 23.9 50 10 41 41 NNW 7 11 29.97 1015 10 16 N/A
9:53 pm 21:53 Clear 70 21.1 54 12.2 57 57 N N/A 29.98 1015 10 16 N/A
10:53 pm 22:53 Mostly Cloudy 66 18.9 55 12.8 68 68 N N/A 29.99 1016 10 16 N/A
11:53 pm 23:53 Cloudy 65 18.3 57 13.9 76 76 N N/A 29.99 1016 10 16 N/A

Powered by AerisWeather